Find Rassvet-2 No. 3

NORAD ID: 59781 Int'l Des: 2024-092 Owner: B1440 Country: RU Constellation: Rassvet operational
LEOCIRCULARRETROGRADESSO

实时位置

正在加载3D地球...

关于 Rassvet-2 No. 3

正在加载描述...

即将过境

Passes for default location (London). Set your location on the main map for personalized predictions.

高度历史

Loading altitude history...

两行轨道根数

1 59781U 24092J 26104.91182161 .00000092 00000-0 51045-4 0 9999
2 59781 98.6603 224.0468 0012769 40.9314 319.2826 14.31822351 99847
Epoch: Apr 14, 2026 • Age: 7 hours

当前状态

高度 779.5 km
速度 7.47 km/s
星下点 18.79°N, 52.19°W
发射日期 May 16, 2024
运行时间 1.9 years
类型 other

技术详情

分类 Payload
质量 120.00 kg
干质量 120.00 kg
总质量 120.00 kg
长度 1.20 m
直径 0.60 m
跨度 5.00 m
形状 Box+2 pan
制造商 B1440
平台类型 Rassvet-2
阶段状态 In Orbit
所有者/国家 B1440/RU

Most Searched